Weather History for West Plains, MO

Change the Weather History Date:

Wednesday, September 18, 2013

  Actual Average Record
Temperature  
Mean Temperature 77 °F 68 °F  
Max Temperature 84 °F 80 °F 96 °F (1972)
Min Temperature 69 °F 56 °F 41 °F (1981)
Degree Days  
Heating Degree Days 0 1  
Month to date heating degree days 4 6  
Since 1 July heating degree days 8 7  
Cooling Degree Days 12 4  
Month to date cooling degree days 162 123  
Year to date cooling degree days 1004 1295  
Growing Degree Days 26 (Base 50)    
Moisture  
Dew Point 66 °F    
Average Humidity 73    
Maximum Humidity 90    
Minimum Humidity 55    
Precipitation  
Precipitation 0.00 in 0.12 in 1.58 in (1949)
Month to date precipitation 0.29 2.53  
Year to date precipitation 42.52 32.60  
Sea Level Pressure  
Sea Level Pressure 30.03 in    
Wind  
Wind Speed 5 mph (SSE)    
Max Wind Speed 10 mph    
Max Gust Speed 16 mph    
Visibility 9 miles    
Events      
T = Trace of Precipitation, MM = Missing Value Source: NWS Daily Summary

Daily Weather History Graph

Daily Weather History Graph

Search for Another Location

Airport:

Trip Planner

Search our weather history database for the weather conditions in past years. The results will help you decide how hot, cold, wet, or windy it might be!

Date:

Astronomy

Sep. 18, 2013 Rise Set
Actual Time 6:52 AM CDT 7:10 PM CDT
Civil Twilight 6:26 AM CDT 7:36 PM CDT
Nautical Twilight 5:56 AM CDT 8:06 PM CDT
Astronomical Twilight 5:25 AM CDT 8:37 PM CDT
Moon 6:34 PM CDT (9/18) 5:55 AM CDT (9/18)
Length of Visible Light 13h 09m
Length of Day
12h 17m
Waxing Gibbous, 99% of the Moon is Illuminated
Sep 18
Waxing Gibbous
Sep 19
Full
Sep 26
Last Quarter
Oct 4
New
Oct 11
First Quarter

Hourly Weather History & Observations

Time (CDT) Temp. Heat Index Dew Point Humidity Pressure Visibility Wind Dir Wind Speed Gust Speed Precip Events Conditions
12:53 AM 71.1 °F - 66.0 °F 84% 30.06 in 9.0 mi SE 4.6 mph - N/A   Scattered Clouds
1:53 AM 70.0 °F - 64.9 °F 84% 30.06 in 9.0 mi SE 4.6 mph - N/A   Clear
2:53 AM 69.1 °F - 64.9 °F 87% 30.05 in 8.0 mi SSE 3.5 mph - N/A   Scattered Clouds
3:53 AM 69.1 °F - 64.9 °F 87% 30.05 in 8.0 mi SSE 3.5 mph - N/A   Mostly Cloudy
4:53 AM 70.0 °F - 64.9 °F 84% 30.04 in 9.0 mi SSE 6.9 mph - N/A   Mostly Cloudy
5:53 AM 69.1 °F - 64.9 °F 87% 30.04 in 8.0 mi South 3.5 mph - N/A   Mostly Cloudy
6:53 AM 69.1 °F - 64.9 °F 87% 30.05 in 8.0 mi ESE 3.5 mph - N/A   Mostly Cloudy
7:53 AM 69.1 °F - 66.0 °F 90% 30.07 in 6.0 mi Calm Calm - N/A   Scattered Clouds
8:53 AM 73.0 °F - 66.0 °F 79% 30.06 in 10.0 mi South 4.6 mph - N/A   Scattered Clouds
9:53 AM 73.9 °F - 64.9 °F 73% 30.07 in 10.0 mi SSE 6.9 mph - N/A   Partly Cloudy
10:53 AM 78.1 °F - 64.9 °F 64% 30.06 in 10.0 mi SSW 6.9 mph - N/A   Partly Cloudy
11:53 AM 79.0 °F - 66.0 °F 64% 30.06 in 10.0 mi South 6.9 mph - N/A   Mostly Cloudy
12:53 PM 82.0 °F 84.5 °F 66.9 °F 60% 30.04 in 10.0 mi SE 5.8 mph - N/A   Mostly Cloudy
1:53 PM 82.9 °F 84.6 °F 64.9 °F 54% 30.02 in 10.0 mi SW 8.1 mph - N/A   Partly Cloudy
2:53 PM 82.9 °F 85.0 °F 66.0 °F 56% 30.01 in 10.0 mi SSW 5.8 mph - N/A   Clear
3:53 PM 82.9 °F 85.0 °F 66.0 °F 56% 30.01 in 10.0 mi SSW 8.1 mph - N/A   Clear
4:53 PM 82.0 °F 83.8 °F 64.9 °F 56% 30.00 in 10.0 mi South 4.6 mph - N/A   Partly Cloudy
5:53 PM 82.0 °F 84.9 °F 68.0 °F 62% 29.98 in 10.0 mi SE 4.6 mph - N/A   Clear
6:53 PM 78.1 °F - 66.9 °F 68% 29.98 in 10.0 mi South 4.6 mph - N/A   Clear
7:53 PM 77.0 °F - 66.9 °F 71% 29.99 in 10.0 mi SSE 8.1 mph - N/A   Clear
8:53 PM 75.9 °F - 66.0 °F 71% 29.99 in 10.0 mi SSE 4.6 mph - N/A   Clear
9:53 PM 73.0 °F - 66.9 °F 81% 30.00 in 10.0 mi SSE 3.5 mph - N/A   Clear
10:53 PM 73.9 °F - 68.0 °F 82% 30.00 in 9.0 mi South 5.8 mph - N/A   Clear
11:53 PM 75.0 °F - 66.9 °F 76% 29.99 in 9.0 mi South 5.8 mph - N/A   Clear